TimeCST,TemperatureF,Dew PointF,Humidity,Sea Level PressureIn,VisibilityMPH,Wind Direction,Wind SpeedMPH,Gust SpeedMPH,PrecipitationIn,Events,Conditions,WindDirDegrees,DateUTC
12:12 AM,19.4,15.8,86,30.35,10.0,Calm,Calm,-,N/A,,Overcast,0,2013-03-07 06:12:00
12:33 AM,19.4,15.8,86,30.34,10.0,Calm,Calm,-,N/A,,Overcast,0,2013-03-07 06:33:00
12:53 AM,19.4,15.8,86,30.33,10.0,ESE,3.5,-,N/A,,Overcast,110,2013-03-07 06:53:00
1:12 AM,17.6,14.0,86,30.33,10.0,Calm,Calm,-,N/A,,Mostly Cloudy,0,2013-03-07 07:12:00
1:33 AM,17.6,14.0,86,30.33,10.0,Calm,Calm,-,N/A,,Scattered Clouds,0,2013-03-07 07:33:00
1:53 AM,17.6,12.2,79,30.33,10.0,Calm,Calm,-,N/A,,Clear,0,2013-03-07 07:53:00
2:13 AM,15.8,12.2,86,30.34,10.0,Calm,Calm,-,N/A,,Clear,0,2013-03-07 08:13:00
2:33 AM,17.6,14.0,86,30.34,10.0,Calm,Calm,-,N/A,,Clear,0,2013-03-07 08:33:00
2:53 AM,15.8,12.2,86,30.33,10.0,Calm,Calm,-,N/A,,Clear,0,2013-03-07 08:53:00
3:13 AM,14.0,10.4,86,30.33,7.0,Calm,Calm,-,N/A,,Clear,0,2013-03-07 09:13:00
3:33 AM,12.2,8.6,85,30.32,7.0,ESE,4.6,-,N/A,,Clear,110,2013-03-07 09:33:00
3:53 AM,14.0,10.4,86,30.32,10.0,Calm,Calm,-,N/A,,Clear,0,2013-03-07 09:53:00
4:13 AM,12.2,8.6,85,30.32,5.0,Calm,Calm,-,N/A,,Clear,0,2013-03-07 10:13:00
4:33 AM,10.4,8.6,92,30.33,4.0,Calm,Calm,-,N/A,,Clear,0,2013-03-07 10:33:00
4:53 AM,12.2,8.6,85,30.33,1.8,Calm,Calm,-,N/A,,Mist,0,2013-03-07 10:53:00
5:13 AM,10.4,6.8,85,30.32,2.5,Calm,Calm,-,N/A,,Clear,0,2013-03-07 11:13:00
5:33 AM,8.6,5.0,85,30.32,3.0,SE,3.5,-,N/A,,Clear,130,2013-03-07 11:33:00
5:53 AM,10.4,6.8,85,30.32,5.0,SE,3.5,-,N/A,,Clear,130,2013-03-07 11:53:00
6:13 AM,8.6,6.8,92,30.33,5.0,Calm,Calm,-,N/A,,Clear,0,2013-03-07 12:13:00
6:33 AM,6.8,3.2,85,30.33,10.0,Calm,Calm,-,N/A,,Clear,0,2013-03-07 12:33:00
6:53 AM,6.8,1.4,79,30.33,2.0,SSE,3.5,-,N/A,Snow,Light Snow,160,2013-03-07 12:53:00
7:13 AM,6.8,3.2,85,30.32,0.5,SE,4.6,-,N/A,Snow,Light Snow,140,2013-03-07 13:13:00
7:33 AM,6.8,3.2,85,30.33,0.2,Calm,Calm,-,N/A,Snow,Light Snow,0,2013-03-07 13:33:00
7:53 AM,6.8,3.2,85,30.33,1.0,Calm,Calm,-,N/A,Snow,Light Snow,0,2013-03-07 13:53:00
8:13 AM,8.6,3.2,79,30.33,2.5,Calm,Calm,-,N/A,Snow,Light Snow,0,2013-03-07 14:13:00
8:33 AM,8.6,5.0,85,30.32,4.0,Calm,Calm,-,N/A,Snow,Light Snow,0,2013-03-07 14:33:00
9:13 AM,10.4,8.6,92,30.32,1.8,Calm,Calm,-,N/A,Snow,Light Snow,0,2013-03-07 15:13:00
9:33 AM,14.0,10.4,86,30.32,7.0,ESE,4.6,-,N/A,,Clear,110,2013-03-07 15:33:00
9:52 AM,15.8,12.2,86,30.32,10.0,ESE,5.8,-,N/A,,Clear,120,2013-03-07 15:52:00
10:13 AM,17.6,15.8,93,30.32,10.0,SE,8.1,-,N/A,,Clear,130,2013-03-07 16:13:00
10:33 AM,19.4,15.8,86,30.32,10.0,SE,13.8,-,N/A,,Clear,140,2013-03-07 16:33:00
10:52 AM,19.4,17.6,93,30.31,10.0,SE,11.5,-,N/A,,Clear,140,2013-03-07 16:52:00
11:13 AM,19.4,15.8,86,30.31,10.0,SSE,9.2,-,N/A,,Clear,150,2013-03-07 17:13:00
11:33 AM,21.2,15.8,80,30.32,10.0,SSE,10.4,-,N/A,,Clear,150,2013-03-07 17:33:00
11:52 AM,21.2,15.8,80,30.32,10.0,SSE,10.4,-,N/A,,Clear,150,2013-03-07 17:52:00
12:13 PM,21.2,15.8,80,30.31,10.0,SE,9.2,-,N/A,,Clear,140,2013-03-07 18:13:00
12:33 PM,24.8,15.8,69,30.31,10.0,SE,10.4,-,N/A,,Clear,140,2013-03-07 18:33:00
12:52 PM,24.8,17.6,74,30.30,10.0,SE,12.7,-,N/A,,Clear,140,2013-03-07 18:52:00
1:13 PM,26.6,17.6,69,30.29,10.0,SE,11.5,-,N/A,,Clear,140,2013-03-07 19:13:00
1:33 PM,26.6,17.6,69,30.28,10.0,SSE,12.7,-,N/A,,Clear,150,2013-03-07 19:33:00
1:52 PM,26.6,17.6,69,30.27,10.0,SE,11.5,-,N/A,,Clear,130,2013-03-07 19:52:00
2:13 PM,26.6,17.6,69,30.26,10.0,ESE,12.7,-,N/A,,Clear,120,2013-03-07 20:13:00
2:33 PM,28.4,17.6,64,30.25,10.0,SE,15.0,-,N/A,,Clear,130,2013-03-07 20:33:00
2:53 PM,28.4,17.6,64,30.25,10.0,SE,16.1,20.7,N/A,,Clear,130,2013-03-07 20:53:00
3:13 PM,28.4,17.6,64,30.25,10.0,SE,16.1,-,N/A,,Clear,130,2013-03-07 21:13:00
3:33 PM,28.4,17.6,64,30.24,10.0,SE,13.8,-,N/A,,Clear,130,2013-03-07 21:33:00
3:53 PM,28.4,17.6,64,30.24,10.0,SE,16.1,-,N/A,,Clear,140,2013-03-07 21:53:00
4:13 PM,28.4,19.4,69,30.24,10.0,SE,15.0,-,N/A,,Clear,130,2013-03-07 22:13:00
4:33 PM,28.4,19.4,69,30.24,10.0,ESE,12.7,-,N/A,,Clear,120,2013-03-07 22:33:00
4:53 PM,28.4,19.4,69,30.23,10.0,SE,18.4,-,N/A,,Clear,130,2013-03-07 22:53:00
5:13 PM,26.6,19.4,74,30.23,10.0,SE,16.1,23.0,N/A,,Clear,130,2013-03-07 23:13:00
5:32 PM,26.6,19.4,74,30.22,10.0,SE,16.1,21.9,N/A,,Clear,130,2013-03-07 23:32:00
5:53 PM,26.6,19.4,74,30.23,10.0,SE,17.3,-,N/A,,Clear,140,2013-03-07 23:53:00
7:32 PM,26.6,19.4,74,30.23,10.0,SE,15.0,-,N/A,,Clear,130,2013-03-08 01:32:00
7:53 PM,24.8,19.4,80,30.22,10.0,SE,16.1,21.9,N/A,,Clear,130,2013-03-08 01:53:00
8:13 PM,24.8,19.4,80,30.22,10.0,SE,15.0,-,N/A,,Clear,130,2013-03-08 02:13:00
8:32 PM,24.8,19.4,80,30.23,10.0,SE,13.8,-,N/A,,Clear,140,2013-03-08 02:32:00
8:53 PM,24.8,17.6,74,30.24,10.0,SSE,10.4,-,N/A,,Clear,150,2013-03-08 02:53:00
9:13 PM,23.0,17.6,80,30.25,10.0,SSE,8.1,-,N/A,,Clear,160,2013-03-08 03:13:00
9:32 PM,19.4,15.8,86,30.26,10.0,SSE,6.9,-,N/A,,Clear,160,2013-03-08 03:32:00
9:53 PM,19.4,15.8,86,30.26,10.0,SSE,6.9,-,N/A,,Clear,150,2013-03-08 03:53:00
10:13 PM,19.4,15.8,86,30.26,10.0,SSE,6.9,-,N/A,,Clear,150,2013-03-08 04:13:00
10:33 PM,19.4,15.8,86,30.26,10.0,SSE,6.9,-,N/A,,Clear,150,2013-03-08 04:33:00
10:53 PM,19.4,15.8,86,30.26,10.0,SSE,8.1,-,N/A,,Clear,150,2013-03-08 04:53:00
11:13 PM,19.4,15.8,86,30.25,10.0,SSE,9.2,-,N/A,,Clear,150,2013-03-08 05:13:00
11:33 PM,19.4,15.8,86,30.25,7.0,SSE,9.2,-,N/A,,Clear,150,2013-03-08 05:33:00